Regional Weather Roundup
Issued by NWS

Home | Current Version | Previous Version | Text Only | Print | Product List | Glossary Off
Versions: 1 2 3 4 5 6 7 8 9 10 11 12 13 14 15 16 17 18 19 20 21 22 23 24 25 26 27 28 29 30 31 32 33 34 35 36 37 38 39 40 41 42 43 44 45 46 47 48 49 50

000
ASUS45 KABQ 272301
RWRNM
NEW MEXICO REGIONAL WEATHER ROUNDUP
NATIONAL WEATHER SERVICE ALBUQUERQUE NM
500 PM MDT MON JUN 27 2016

NOTE: "FAIR" MEANS FEW OR NO CLOUDS BELOW 12,000 FEET AGL WITH NO
       SIGNIFICANT WEATHER OR OBSTRUCTIONS TO VISION.

      THIS PRODUCT IS RELEASED AS TWO VERSIONS.  ONE VERSION NEAR
      THE TOP OF THE HOUR CONTAINING PRELIMINARY DATA FROM ALBUQUERQUE
      AND OTHER STATIONS.  A FINAL VERSION WITH ADDITIONAL DATA IS
      ISSUED ABOUT 10 MINUTES AFTER THE HOUR.

NMZ501-503-504-510>518-280000-
NORTHWEST PLATEAU/NORTHCENTRAL MOUNTAINS

CITY           SKY/WX    TMP DP  RH WIND       PRES   REMARKS
FARMINGTON     FAIR      94  29  10 VRB6      30.18F
LOS ALAMOS     FAIR      77  39  25 SE10      30.39R
SANTA FE       PTSUNNY   85  43  22 SE7       30.30F THUNDER
TAOS           PTSUNNY   68  43  40 SW22G41   30.44R
ANGEL FIRE     FAIR      66  43  43 W6        30.52F

$$
NMZ402-403-502-505>509-280000-
WESTCENTRAL MOUNTAINS/SOUTHWEST MOUNTAINS

CITY           SKY/WX    TMP DP  RH WIND       PRES   REMARKS
GALLUP         LGT RAIN  84  39  20 MISG      30.27F
GRANTS         FAIR      89  40  18 SE15G23   30.32S
SILVER CITY    FAIR      73  58  57 N14       30.23S

$$
NMZ407-409-411-412-280000-
SOUTHERN DESERTS

CITY           SKY/WX    TMP DP  RH WIND       PRES   REMARKS
LORDSBURG      LGT RAIN  75  63  64 MISG      30.15F
DEMING         PTSUNNY   86  56  35 NW13      30.11F
LAS CRUCES     FAIR      91  51  25 SE13      30.14S
ALAMOGORDO     FAIR      90  52  27 W8        30.12S
T OR C         FAIR      91  48  22 NE13      30.15F

$$
NMZ519>523-280000-
CENTRAL VALLEYS/CENTRAL HIGHLANDS

CITY           SKY/WX    TMP DP  RH WIND       PRES   REMARKS
ALBUQUERQUE    PTSUNNY   90  41  18 E12       30.22F
DOUBLE EAGLE   PTSUNNY   91  45  19 SE10      30.27F
CLINES CORNERS FAIR      77  49  37 E10       30.38F
BELEN          FAIR      89  36  15 E7G20     30.21F
SOCORRO        FAIR      90  45  20 E7        30.18S

$$
NMZ524>526-539-540-280000-
SOUTHCENTRAL MOUNTAINS

CITY           SKY/WX    TMP DP  RH WIND       PRES   REMARKS
RUIDOSO          N/A     75  48  38 E14G21    30.39S

$$
NMZ527>531-280000-
NORTHEAST HIGHLANDS/NORTHEAST PLAINS

CITY           SKY/WX    TMP DP  RH WIND       PRES   REMARKS
LAS VEGAS      FAIR      82  42  24 SE14G24   30.38F
RATON          FAIR      85  43  22 SW3       30.32F
CLAYTON        FAIR      86  50  28 E8        30.26S

$$
NMZ532>537-280000-
EASTCENTRAL PLAINS

CITY           SKY/WX    TMP DP  RH WIND       PRES   REMARKS
TUCUMCARI      FAIR      91  53  27 S14       30.18F
CANNON AFB     FAIR      85  58  38 SE9       30.21F
CLOVIS AIRPORT FAIR      84  59  42 E9        30.22F

$$
NMZ028-029-538-280000-
SOUTHEAST PLAINS

CITY           SKY/WX    TMP DP  RH WIND       PRES   REMARKS
ROSWELL        FAIR      90  56  31 E12G17    30.14F
ARTESIA        PTSUNNY   82  63  51 SE16      30.15S
CARLSBAD       CLOUDY    74  69  85 S12       30.14F
HOBBS          PTSUNNY   81  63  54 E14       30.19S


$$



USA.gov is the U.S. government's official web portal to all federal, state and local government web resources and services.